N16SA KMSP-RJBB

Flight info

Callsign N16SA
Flight time N/A
Altitude 36000
Route KBREW2 FAR J36 HILGR J203 GTF J36 MLP J136 GEG J52 YVR DCT GOVAD Q801 CAFTA DCT KATCH DCT HMPTN DCT GRIZZ DCT CJAYY DCT 58N160W DCT OGGOE DCT NANDY DCT NATES DCT NIKLL DCT NYMPH DCT NUZAN/N0485F380 DCT NRKEY DCT NIPPI R220 NUBDA/N0472F400 R220 IXE Y88 NAKTU Y12 KOHWA Y544 DUBKA
Aircraft GLF6/M-SFGHIRWXY/S

Departure

Time 2026-05-07 05:20
Airport Minneapolis–Saint Paul International Airport / Wold–Chamberlain Field (KMSP)

Arrival

Time N/A
Airport Kansai International Airport (RJBB)
Time Latitude Longitude Altitude Speed Heading
2026-05-07 04:41 44.87765 -93.21719 825 ft 0 kts 269°
2026-05-07 05:13 44.87765 -93.21720 825 ft 1 kts 269°
2026-05-07 05:14 44.87746 -93.21732 825 ft 3 kts 117°
2026-05-07 05:14 44.87748 -93.21703 825 ft 2 kts 76°
2026-05-07 05:14 44.87754 -93.21661 825 ft 4 kts 81°
2026-05-07 05:14 44.87759 -93.21623 825 ft 3 kts 74°
2026-05-07 05:15 44.87770 -93.21594 825 ft 4 kts 60°
2026-05-07 05:15 44.87797 -93.21541 825 ft 7 kts 52°
2026-05-07 05:15 44.87806 -93.21461 824 ft 12 kts 118°
2026-05-07 05:15 44.87751 -93.21333 822 ft 15 kts 122°
2026-05-07 05:16 44.87693 -93.21206 822 ft 16 kts 122°
2026-05-07 05:16 44.87639 -93.21075 820 ft 15 kts 123°
2026-05-07 05:16 44.87585 -93.20954 818 ft 13 kts 120°
2026-05-07 05:16 44.87538 -93.20841 815 ft 13 kts 121°
2026-05-07 05:17 44.87487 -93.20731 813 ft 13 kts 134°
2026-05-07 05:17 44.87412 -93.20654 810 ft 13 kts 144°
2026-05-07 05:17 44.87353 -93.20562 807 ft 12 kts 121°
2026-05-07 05:17 44.87308 -93.20458 805 ft 11 kts 122°
2026-05-07 05:18 44.87269 -93.20371 804 ft 9 kts 121°
2026-05-07 05:18 44.87239 -93.20293 803 ft 8 kts 107°
2026-05-07 05:18 44.87252 -93.20236 804 ft 4 kts 47°
2026-05-07 05:18 44.87271 -93.20216 804 ft 3 kts 32°
2026-05-07 05:19 44.87298 -93.20192 804 ft 3 kts 32°
2026-05-07 05:19 44.87317 -93.20175 805 ft 4 kts 32°
2026-05-07 05:19 44.87350 -93.20154 806 ft 5 kts 11°
2026-05-07 05:19 44.87385 -93.20184 806 ft 7 kts 294°
2026-05-07 05:20 44.87448 -93.20341 808 ft 46 kts 301°
2026-05-07 05:20 44.87749 -93.21033 820 ft 118 kts 301°
2026-05-07 05:20 44.88885 -93.23495 1778 ft 157 kts 305°
2026-05-07 05:21 44.89552 -93.24770 2332 ft 170 kts 307°
2026-05-07 05:21 44.91132 -93.27446 3797 ft 182 kts 326°
2026-05-07 05:21 44.92344 -93.27786 4664 ft 184 kts
2026-05-07 05:22 44.93602 -93.27601 5474 ft 186 kts
2026-05-07 05:22 44.94929 -93.27415 5907 ft 207 kts 359°
2026-05-07 05:22 44.96366 -93.27431 6733 ft 204 kts 349°
2026-05-07 05:22 44.97746 -93.27727 7460 ft 206 kts 343°
2026-05-07 05:23 44.99133 -93.28214 8270 ft 206 kts 339°
2026-05-07 05:23 45.00502 -93.28831 9017 ft 208 kts 336°
2026-05-07 05:23 45.01836 -93.29517 9781 ft 208 kts 334°
2026-05-07 05:23 45.03192 -93.30271 10523 ft 209 kts 333°
2026-05-07 05:24 45.04540 -93.31062 11178 ft 214 kts 333°
2026-05-07 05:24 45.05907 -93.31885 11869 ft 216 kts 333°
2026-05-07 05:24 45.07295 -93.32740 12499 ft 221 kts 333°
2026-05-07 05:24 45.08702 -93.33616 13161 ft 223 kts 332°
2026-05-07 05:25 45.10124 -93.34508 13792 ft 226 kts 332°
2026-05-07 05:25 45.11584 -93.35428 14421 ft 228 kts 332°
2026-05-07 05:25 45.13032 -93.36342 15060 ft 230 kts 332°
2026-05-07 05:25 45.14391 -93.37360 15610 ft 228 kts 314°
2026-05-07 05:26 45.15252 -93.39077 16124 ft 228 kts 298°
2026-05-07 05:26 45.15994 -93.40967 16732 ft 228 kts 298°
2026-05-07 05:26 45.16731 -93.42838 17308 ft 229 kts 297°
2026-05-07 05:26 45.17505 -93.44808 17837 ft 233 kts 297°
2026-05-07 05:27 45.18337 -93.46936 17844 ft 258 kts 298°
2026-05-07 05:27 45.19182 -93.49101 17907 ft 281 kts 298°
2026-05-07 05:27 45.20171 -93.51633 17942 ft 305 kts 298°
2026-05-07 05:27 45.21238 -93.54366 17983 ft 329 kts 298°
2026-05-07 05:28 45.22380 -93.57296 18153 ft 348 kts 298°
2026-05-07 05:28 45.23554 -93.60309 18708 ft 356 kts 298°
2026-05-07 05:28 45.24765 -93.63423 19318 ft 363 kts 298°
2026-05-07 05:28 45.25994 -93.66586 20124 ft 367 kts 297°
2026-05-07 05:29 45.27231 -93.69774 20880 ft 372 kts 297°
2026-05-07 05:29 45.28465 -93.72960 21695 ft 375 kts 297°
2026-05-07 05:29 45.29724 -93.76214 22414 ft 380 kts 297°
2026-05-07 05:29 45.31006 -93.79532 23124 ft 386 kts 297°
2026-05-07 05:30 45.32296 -93.82870 23921 ft 388 kts 297°
2026-05-07 05:30 45.33609 -93.86276 24574 ft 394 kts 297°
2026-05-07 05:30 45.34933 -93.89713 25222 ft 397 kts 297°
2026-05-07 05:30 45.36242 -93.93116 25795 ft 397 kts 297°
2026-05-07 05:31 45.37569 -93.96571 26375 ft 402 kts 297°
2026-05-07 05:31 45.38914 -94.00075 26969 ft 406 kts 297°
2026-05-07 05:31 45.40284 -94.03650 27585 ft 411 kts 297°
2026-05-07 05:31 45.41649 -94.07219 28200 ft 413 kts 298°
2026-05-07 05:32 45.43022 -94.10811 28811 ft 416 kts 298°
2026-05-07 05:32 45.44411 -94.14449 29357 ft 418 kts 298°
2026-05-07 05:32 45.45810 -94.18118 29920 ft 419 kts 298°
2026-05-07 05:32 45.47204 -94.21782 30420 ft 421 kts 298°
2026-05-07 05:33 45.48584 -94.25410 30919 ft 421 kts 298°
2026-05-07 05:33 45.49987 -94.29108 31247 ft 422 kts 298°
2026-05-07 05:33 45.51379 -94.32778 31587 ft 422 kts 298°
2026-05-07 05:33 45.52774 -94.36462 31953 ft 423 kts 298°
2026-05-07 05:34 45.54159 -94.40123 32278 ft 423 kts 298°
2026-05-07 05:34 45.55551 -94.43813 32627 ft 423 kts 298°
2026-05-07 05:34 45.56944 -94.47504 32974 ft 422 kts 298°
2026-05-07 05:34 45.58331 -94.51138 33315 ft 422 kts 301°
2026-05-07 05:35 45.60007 -94.54545 33713 ft 422 kts 307°
2026-05-07 05:35 45.61773 -94.57896 34133 ft 422 kts 306°
2026-05-07 05:35 45.63516 -94.61234 34548 ft 421 kts 306°
2026-05-07 05:35 45.65273 -94.64613 34950 ft 421 kts 306°
2026-05-07 05:36 45.67009 -94.67959 35338 ft 420 kts 306°
2026-05-07 05:36 45.68724 -94.71269 35700 ft 420 kts 306°
2026-05-07 05:36 45.70476 -94.74656 35969 ft 422 kts 306°
2026-05-07 05:37 45.74025 -94.81527 35990 ft 437 kts 305°
2026-05-07 05:37 45.77640 -94.88544 35988 ft 437 kts 306°
2026-05-07 05:38 45.81228 -94.95526 35986 ft 435 kts 306°
2026-05-07 05:38 45.84822 -95.02535 35984 ft 434 kts 306°
2026-05-07 05:39 45.88390 -95.09512 35984 ft 434 kts 306°